Location: Reily Lake
(37.9792°N, 89.9209°W)
Time: 05:48:12
(UTC+00:00)

Daily predictions for brighter satellites

Satellite Brightness Start Highest point End
(mag) Time Altitude Azimuth Time Altitude Azimuth Time Altitude Azimuth
Gbstr 26 Del rocket 3.5 00:01:02 10° SSW 00:04:44 33° SE 00:05:34 29° ESE
Meteor 1-20 Rocket 4.1 00:01:51 10° N 00:07:14 58° ENE 00:12:36 10° SSE
Cosmos 1354 Rocket 4.3 00:02:50 10° S 00:07:49 45° ESE 00:10:25 26° NE
Cosmos 1743 2.1 00:06:03 10° N 00:09:19 86° E 00:12:33 10° S
Spot 4 Rocket 4.1 00:05:16 10° SE 00:10:09 49° ENE 00:15:05 10° N
Cosmos 1697 Rocket 2.9 00:05:34 10° S 00:10:51 45° ESE 00:13:24 28° NE
IRIDIUM 114 4.3 00:06:08 10° N 00:11:24 89° W 00:16:36 10° S
BREEZE-M DEB (TANK) 4.1 00:02:21 10° SSW 00:13:27 45° SE 00:15:41 29° E
SL-19 R/B 4.3 00:09:44 10° SE 00:14:43 46° ENE 00:19:53 10° N
Cosmos 1606 Rocket 3.4 00:16:27 10° S 00:20:48 72° E 00:23:21 24° NNE
Okean 1-7 Rocket 3.4 00:16:39 10° N 00:21:02 64° E 00:25:20 10° SSE
BREEZE-M DEB (TANK) 4.4 00:18:11 10° NW 00:21:52 32° NNE 00:23:52 28° ENE
Cosmos 1655 Rocket 4.2 00:18:17 10° N 00:24:16 45° ENE 00:30:10 10° SSE
Resurs 1-3 3.4 00:20:39 10° SSE 00:24:53 62° ENE 00:29:08 10° N
Cosmos 1777 Rocket 4.3 00:23:42 10° SSW 00:28:54 65° WNW 00:33:11 15° N
Meteor 1-25 Rocket 4.1 00:24:23 10° N 00:30:13 72° E 00:35:58 10° SSE
NOSS 3-2 (C) 3.1 00:27:24 10° SW 00:32:13 70° NW 00:34:58 29° NNE
SPOT 1/Viking Rocket 4.3 00:41:52 10° S 00:46:55 53° W 00:52:01 10° NNW
Cosmos 2297 Rocket 2.1 00:42:10 10° NNW 00:47:52 90° SSW 00:53:30 10° SSE
Cosmos 1726 Rocket 3.8 00:44:39 10° SSW 00:49:15 75° W 00:50:31 48° N
NOAA 6 3.8 00:46:25 10° SSE 00:51:32 83° ENE 00:56:39 10° NNW
Cosmos 1461 3.5 00:50:46 10° SW 00:54:05 48° W 00:54:05 48° W
Helios 1A Rocket 4.0 00:55:08 35° W 00:55:08 35° W 00:57:48 10° SW
Meteor 1-5 Rocket 4.4 00:49:47 10° N 00:59:16 18° SSE 01:00:32 10° SSE
BREEZE-M DEB (TANK) 4.0 00:53:24 10° WSW 00:56:27 35° W 00:56:27 35° W
CZ-4C R/B 3.1 00:50:51 10° NNW 00:58:04 56° NE 00:59:10 52° E
Meteor 2-20 4.4 00:53:18 10° S 00:59:28 85° W 01:03:11 26° N
YAOGAN 1 3.8 01:01:28 10° SSW 01:05:28 40° W 01:09:29 10° NNW
Cosmos 1980 Rocket 3.0 01:05:33 10° S 01:09:03 38° S 01:09:03 38° S
Meteor 2-20 Rocket 4.5 01:16:09 10° S 01:22:33 80° W 01:22:33 80° W
H-2A R/B 3.7 01:23:55 10° SW 01:25:15 23° SSW 01:25:15 23° SSW
USA 238 DEB 3.9 01:24:52 10° SSW 01:29:10 51° SSW 01:29:10 51° SSW
USA 238 4.0 01:24:58 10° SSW 01:29:14 50° SSW 01:29:14 50° SSW
USA 215 4.4 01:39:49 31° NNW 01:39:49 31° NNW 01:43:22 10° NW
Cosmos 2227 Rocket 4.1 01:32:46 10° NNW 01:34:33 21° NNW 01:34:33 21° NNW
CZ-4C R/B 4.5 02:39:25 10° NW 02:44:13 32° W 02:44:13 32° W
Cosmos 1980 Rocket 4.2 10:04:01 19° NNE 10:06:05 23° NE 10:10:27 10° ESE
CZ-3 Stage 3 4.0 10:03:34 53° SW 10:06:19 65° S 10:40:26 10° ESE
Cosmos 1503 Rocket 4.3 10:33:22 59° SSE 10:33:22 59° SSE 10:37:31 10° SSE
Cosmos 1354 Rocket 4.2 10:36:49 56° NNE 10:37:40 66° ENE 10:42:50 10° SSE
Cosmos 1544 Rocket 4.0 10:39:22 59° ESE 10:39:22 59° ESE 10:43:17 10° SSE
Cosmos 1697 Rocket 2.5 10:49:33 68° W 10:49:48 69° WSW 10:55:22 10° S
IRS-1D 3.8 10:46:11 10° NNE 10:51:09 64° ESE 10:56:11 10° S
Atlas 2A Centaur Rocket 4.2 10:54:03 12° S 10:54:03 12° S 10:54:24 10° S
SJ-11-01 4.1 10:50:06 10° N 10:54:49 84° WNW 10:59:28 10° SSW
USA 238 DEB 4.1 10:54:14 43° WNW 10:56:38 58° WSW 11:04:35 10° SSE
USA 238 4.1 10:54:17 43° WNW 10:56:45 59° WSW 11:04:43 10° SSE
Meteor 2-12 Rocket 4.3 10:51:55 10° SSW 10:57:57 61° W 11:04:00 10° N
Nadezhda 4 Rocket 4.4 10:53:57 10° S 11:00:10 64° E 11:06:23 10° NNE
COSMOS 2406 4.5 10:56:09 10° S 11:01:25 41° ESE 11:06:41 10° NE
Cosmos 468 Rocket 3.9 11:01:43 10° SSW 11:06:57 69° WNW 11:12:11 10° NNE
Delta 2 Rocket 3.6 11:07:57 42° SE 11:07:57 42° SE 11:10:16 10° E
Cosmos 1782 4.5 11:14:25 18° SSW 11:14:25 18° SSW 11:15:31 10° SSW
CZ-4 R/B 3.6 11:12:22 10° N 11:17:01 80° WNW 11:21:36 10° SSW
CZ-3 R/B 3.6 11:08:46 22° W 11:18:31 38° SW 11:25:23 10° SSE
Cosmos 1536 Rocket 3.6 11:16:13 10° SSW 11:20:34 56° W 11:24:56 10° N
Cosmos 2082 Rocket 2.1 11:15:07 10° SSW 11:20:42 69° WNW 11:26:20 10° NNE
FengYun 1-2 T 4.5 11:17:29 10° N 11:22:51 46° WNW 11:28:11 10° SW
SL-16 R/B 4.3 11:18:53 10° N 11:23:12 22° NE 11:27:30 10° ESE
Helios 1A Rocket 3.1 11:20:07 10° SSE 11:23:21 52° ENE 11:26:06 14° N
BREEZE-M DEB (TANK) 3.6 11:23:10 23° N 11:23:46 24° NNE 11:27:46 10° ENE
SKYMED 2 3.5 11:27:36 10° S 11:31:54 66° W 11:35:45 13° NNW
Cosmos 2098 Rocket 4.0 11:32:10 10° NNW 11:37:32 44° W 11:42:59 10° SSW
BREEZE-M DEB (TANK) 3.4 11:33:08 22° WNW 11:37:37 87° NNE 11:40:58 10° ESE
SL-8 R/B 3.6 11:39:29 25° NW 11:42:15 90° NNE 11:47:00 10° SE
Cosmos 372 Rocket 3.9 11:38:17 10° NNW 11:43:23 88° WSW 11:48:27 10° SSE
Cosmos 2369 3.7 11:42:45 10° NNW 11:48:29 88° ENE 11:54:09 10° SSE
Tiangong -1.6 11:48:48 27° NW 11:50:12 47° N 11:53:22 10° E
Cosmos 1980 Rocket 2.4 11:45:48 15° NW 11:50:16 47° WSW 11:55:35 10° S
SL-24 R/B - RUBIN 2 3.5 11:47:28 18° NW 11:50:36 66° WSW 11:54:58 10° SSE
USA 267 4.4 11:45:26 10° ENE 11:51:40 46° SE 11:57:51 10° SSW
